Location: El Manguito
(10.2358°N, 67.3634°W)
Time: 14:06:14
(UTC+00:00)

YAOGAN 1 - Pass Details

Date: 10 September 2024
Orbit: 609 x 612 km, 97.8° (Epoch: 11 October)

Event Time Altitude Azimuth Distance (km) Brightness Sun altitude
Rises 23:04:52 0° 153° (SSE) 2,873 5.7 -8.7°
Reaches altitude 10° 23:07:10 10° 145° (SE) 1,969 4.8 -9.3°
Maximum altitude 23:11:07 37° 77° (ENE) 956 3.1 -10.2°
Drops below altitude 10° 23:15:09 10° 9° (N) 1,998 5.1 -11.2°
Sets 23:17:22 0° 2° (N) 2,871 6.1 -11.8°
